Daviess Cnty AP, Washington,, IN

6:04 PM EST on November 11, 2019 (GMT -0500)
Daviess County

Weather History for KDCY - September, 2019

Change the Weather History Date:

Sunday, September 1, 2019

  Actual Average (KLWV) Record (KLWV)
Temperature  
Mean Temperature 75 °F 74 °F  
Max Temperature 85 °F 86 °F 99 °F (2011)
Min Temperature 65 °F 63 °F 55 °F (1999)
Degree Days  
Heating Degree Days 0 0  
Month to date heating degree days 0  
Since 1 July heating degree days 1  
Cooling Degree Days 10 9  
Month to date cooling degree days 9  
Year to date cooling degree days 1192  
Growing Degree Days 25 (Base 50)    
Moisture  
Dew Point 69 °F    
Average Humidity 86    
Maximum Humidity 100    
Minimum Humidity 54    
Precipitation  
Precipitation 0.00 in 0.10 in 1.36 in (2003)
Month to date precipitation 0.10  
Year to date precipitation 29.45  
Sea Level Pressure  
Sea Level Pressure 30.08 in    
Wind  
Wind Speed 2 mph (West)    
Max Wind Speed 12 mph    
Max Gust Speed 17 mph    
Visibility 10 miles    
Events      
T = Trace of Precipitation, MM = Missing Value Source: NWS Daily Summary

Daily Weather History Graph

Daily Weather History Graph

Search for Another Location

Airport or City:

Astronomy

Sep. 01, 2019 Rise Set
Actual Time 7:17 AM EDT 8:18 PM EDT
Civil Twilight 6:50 AM EDT 8:46 PM EDT
Nautical Twilight 6:17 AM EDT 9:18 PM EDT
Astronomical Twilight 5:44 AM EDT 9:52 PM EDT
Moon 9:45 AM EDT (9/1) 10:07 PM EDT (9/1)
Length of Visible Light 13h 55m
Length of Day
13h 01m
Waxing Crescent, 8% of the Moon is Illuminated
Sep 1
Waxing Crescent
Sep 5
First Quarter
Sep 14
Full
Sep 21
Last Quarter
Sep 28
New

Hourly Weather History & Observations

Time (EDT) Temp. Heat Index Dew Point Humidity Pressure Visibility Wind Dir Wind Speed Gust Speed Precip Events Conditions
12:15 AM 69.1 °F - 68.9 °F 99% 30.13 in 10.0 mi East 3.5 mph - N/A   Clear
12:35 AM 68.9 °F - 68.9 °F 100% 30.13 in 10.0 mi Calm Calm - N/A   Scattered Clouds
12:55 AM 68.9 °F - 68.7 °F 99% 30.13 in 10.0 mi ESE 3.5 mph - N/A   Scattered Clouds
1:15 AM 68.9 °F - 68.9 °F 100% 30.13 in 10.0 mi Calm Calm - N/A   Mostly Cloudy
1:35 AM 68.9 °F - 68.5 °F 99% 30.12 in 10.0 mi Calm Calm - N/A   Scattered Clouds
1:55 AM 68.2 °F - 68.0 °F 99% 30.12 in 10.0 mi Calm Calm - N/A   Clear
2:15 AM 68.0 °F - 68.0 °F 100% 30.12 in 10.0 mi Calm Calm - N/A   Scattered Clouds
2:35 AM 68.0 °F - 67.6 °F 99% 30.12 in 10.0 mi Calm Calm - N/A   Mostly Cloudy
2:55 AM 68.0 °F - 67.5 °F 98% 30.12 in 10.0 mi Calm Calm - N/A   Scattered Clouds
3:15 AM 68.0 °F - 67.5 °F 98% 30.12 in 10.0 mi Calm Calm - N/A   Scattered Clouds
3:35 AM 67.5 °F - 67.3 °F 99% 30.11 in 10.0 mi Calm Calm - N/A   Scattered Clouds
3:55 AM 68.0 °F - 67.5 °F 98% 30.10 in 10.0 mi Calm Calm - N/A   Clear
4:15 AM 67.3 °F - 67.1 °F 99% 30.10 in 10.0 mi Calm Calm - N/A   Scattered Clouds
4:35 AM 67.5 °F - 67.3 °F 99% 30.10 in 10.0 mi Calm Calm - N/A   Scattered Clouds
4:55 AM 67.3 °F - 67.1 °F 99% 30.10 in 10.0 mi Calm Calm - N/A   Scattered Clouds
5:15 AM 67.5 °F - 67.1 °F 99% 30.10 in 10.0 mi Calm Calm - N/A   Clear
5:35 AM 67.1 °F - 66.7 °F 99% 30.09 in 10.0 mi Calm Calm - N/A   Clear
5:55 AM 66.9 °F - 66.6 °F 99% 30.09 in 7.0 mi Calm Calm - N/A   Clear
6:15 AM 66.4 °F - 66.2 °F 99% 30.09 in 10.0 mi Calm Calm - N/A   Clear
6:35 AM 66.2 °F - 66.2 °F 100% 30.09 in 7.0 mi Calm Calm - N/A   Clear
6:55 AM 66.2 °F - 65.8 °F 99% 30.10 in 10.0 mi Calm Calm - N/A   Clear
7:15 AM 65.7 °F - 65.5 °F 99% 30.08 in 10.0 mi Calm Calm - N/A   Clear
7:35 AM 66.2 °F - 65.7 °F 98% 30.10 in 7.0 mi Calm Calm - N/A   Clear
7:55 AM 66.6 °F - 66.4 °F 99% 30.10 in 7.0 mi Calm Calm - N/A   Clear
8:15 AM 67.3 °F - 67.1 °F 99% 30.10 in 10.0 mi Calm Calm - N/A   Clear
8:35 AM 67.6 °F - 67.3 °F 99% 30.10 in 7.0 mi Calm Calm - N/A   Clear
8:55 AM 68.0 °F - 67.8 °F 99% 30.11 in 10.0 mi Calm Calm - N/A   Clear
9:15 AM 68.9 °F - 68.7 °F 99% 30.12 in 10.0 mi Calm Calm - N/A   Scattered Clouds
9:55 AM 70.9 °F - 70.7 °F 99% 30.12 in 10.0 mi Calm Calm - N/A   Scattered Clouds
10:15 AM 72.7 °F - 70.7 °F 93% 30.13 in 10.0 mi Calm Calm - N/A   Scattered Clouds
10:35 AM 73.6 °F - 70.3 °F 90% 30.13 in 10.0 mi Calm Calm - N/A   Overcast
10:55 AM 74.8 °F - 70.3 °F 86% 30.13 in 10.0 mi Calm Calm - N/A   Overcast
11:15 AM 76.8 °F - 67.8 °F 74% 30.12 in 10.0 mi SSW 4.6 mph - N/A   Mostly Cloudy
11:35 AM 78.1 °F - 68.2 °F 71% 30.12 in 10.0 mi Calm Calm - N/A   Mostly Cloudy
11:55 AM 79.9 °F - 68.7 °F 69% 30.13 in 10.0 mi NNW 11.5 mph 17.3 mph N/A   Scattered Clouds
12:15 PM 75.2 °F - 69.6 °F 83% 30.13 in 10.0 mi North 8.1 mph - N/A   Scattered Clouds
12:35 PM 75.2 °F - 69.8 °F 83% 30.13 in 10.0 mi North 6.9 mph - N/A   Scattered Clouds
12:55 PM 76.5 °F - 70.0 °F 80% 30.12 in 10.0 mi North 3.5 mph - N/A   Scattered Clouds
1:15 PM 77.2 °F - 69.3 °F 76% 30.12 in 10.0 mi North 3.5 mph - N/A   Clear
1:35 PM 78.8 °F - 69.6 °F 73% 30.11 in 10.0 mi NNE 4.6 mph - N/A   Clear
1:55 PM 79.9 °F - 69.6 °F 71% 30.10 in 10.0 mi Calm Calm - N/A   Clear
2:15 PM 80.8 °F 84.2 °F 70.0 °F 70% 30.09 in 10.0 mi Calm Calm - N/A   Scattered Clouds
2:35 PM 81.9 °F 85.0 °F 68.5 °F 64% 30.08 in 10.0 mi Calm Calm - N/A   Scattered Clouds
2:55 PM 82.9 °F 86.7 °F 69.8 °F 64% 30.07 in 10.0 mi SSW 3.5 mph - N/A   Mostly Cloudy
3:15 PM 84.7 °F 89.1 °F 70.0 °F 61% 30.07 in 10.0 mi WSW 8.1 mph - N/A   Scattered Clouds
3:35 PM 84.0 °F 87.8 °F 69.3 °F 61% 30.06 in 10.0 mi WSW 4.6 mph - N/A   Scattered Clouds
3:55 PM 83.3 °F 86.6 °F 68.5 °F 61% 30.06 in 10.0 mi SSW 6.9 mph - N/A   Scattered Clouds
4:15 PM 84.7 °F 87.9 °F 68.2 °F 57% 30.05 in 10.0 mi WSW 6.9 mph - N/A   Scattered Clouds
4:35 PM 84.6 °F 87.9 °F 68.5 °F 58% 30.05 in 10.0 mi SSW 6.9 mph - N/A   Scattered Clouds
4:55 PM 83.7 °F 87.0 °F 68.4 °F 60% 30.04 in 10.0 mi SW 6.9 mph - N/A   Scattered Clouds
5:15 PM 85.5 °F 89.1 °F 68.5 °F 57% 30.04 in 10.0 mi Calm Calm - N/A   Mostly Cloudy
5:35 PM 85.6 °F 88.5 °F 67.3 °F 54% 30.03 in 10.0 mi South 5.8 mph - N/A   Mostly Cloudy
5:55 PM 85.1 °F 88.2 °F 67.8 °F 56% 30.03 in 10.0 mi SSW 8.1 mph - N/A   Mostly Cloudy
6:15 PM 84.6 °F 87.4 °F 67.1 °F 56% 30.03 in 10.0 mi SW 6.9 mph - N/A   Mostly Cloudy
6:35 PM 82.8 °F 85.5 °F 67.5 °F 60% 30.02 in 10.0 mi SSW 5.8 mph - N/A   Mostly Cloudy
6:55 PM 81.5 °F 84.2 °F 67.8 °F 63% 30.03 in 10.0 mi SW 3.5 mph - N/A   Mostly Cloudy
7:15 PM 81.0 °F 84.7 °F 70.7 °F 71% 30.03 in 10.0 mi West 3.5 mph - N/A   Mostly Cloudy
7:35 PM 80.4 °F 83.9 °F 70.5 °F 72% 30.02 in 10.0 mi West 5.8 mph - N/A   Mostly Cloudy
7:55 PM 79.2 °F - 70.7 °F 75% 30.02 in 10.0 mi WSW 3.5 mph - N/A   Mostly Cloudy
8:15 PM 77.9 °F - 70.5 °F 78% 30.02 in 10.0 mi WSW 3.5 mph - N/A   Scattered Clouds
8:35 PM 76.1 °F - 70.7 °F 83% 30.03 in 10.0 mi West 3.5 mph - N/A   Scattered Clouds
8:55 PM 75.2 °F - 71.2 °F 87% 30.03 in 10.0 mi West 3.5 mph - N/A   Mostly Cloudy
9:15 PM 75.0 °F - 74.5 °F 98% 30.04 in 10.0 mi Calm Calm - N/A   Overcast
9:35 PM 74.8 °F - 74.5 °F 99% 30.04 in 10.0 mi Calm Calm - N/A   Mostly Cloudy
9:55 PM 73.4 °F - 73.2 °F 99% 30.04 in 10.0 mi Calm Calm - N/A   Mostly Cloudy
10:15 PM 72.7 °F - 72.5 °F 99% 30.04 in 10.0 mi West 5.8 mph - N/A   Scattered Clouds
10:35 PM 73.4 °F - 73.4 °F 100% 30.05 in 10.0 mi WNW 3.5 mph - N/A   Mostly Cloudy
10:55 PM 73.2 °F - 72.9 °F 99% 30.05 in 10.0 mi NW 3.5 mph - N/A   Scattered Clouds
11:15 PM 71.8 °F - 71.6 °F 99% 30.06 in 10.0 mi NNW 3.5 mph - N/A   Clear
11:35 PM 70.9 °F - 70.7 °F 99% 30.07 in 10.0 mi Calm Calm - N/A   Scattered Clouds
11:55 PM 70.3 °F - 70.0 °F 99% 30.07 in 10.0 mi NW 3.5 mph - N/A   Clear